Regional Weather Roundup
Issued by NWS

Home | Current Version | Previous Version | Text Only | Print | Product List | Glossary Off
Versions: 1 2 3 4 5 6 7 8 9 10 11 12 13 14 15 16 17 18 19 20 21 22 23 24 25 26 27 28 29 30 31 32 33 34 35 36 37 38 39 40 41 42 43 44 45 46 47 48 49 50

804
ASUS43 KOAX 220802
RWRNE

WEATHER ROUNDUP FOR NEBRASKA
NATIONAL WEATHER SERVICE OMAHA NE
300 AM CDT FRI SEP 22 2017

NOTES: SATELLITE DATA IS BEING USED TO AUGMENT CLOUD COVER ABOVE
       12000 FEET.
       "FAIR" INDICATES FEW OR NO CLOUDS BELOW 12,000 FEET WITH NO
       SIGNIFICANT WEATHER AND/OR OBSTRUCTIONS TO VISIBILITY.


NEZ001>004-019>022-054>056-220900-
NEBRASKA PANHANDLE

CITY           SKY/WX    TMP DP  RH WIND       PRES   REMARKS
SCOTTSBLUFF    CLOUDY    56  40  55 NW10G18   29.68R
ALLIANCE       CLEAR     51  42  71 N14       29.64S
CHADRON        CLEAR     53  40  61 N9        29.71R
GORDON         FAIR      55  41  61 N14G21    29.65F
KIMBALL        CLOUDY    58  32  37 W20G25    29.70R
SIDNEY         CLOUDY    52  32  46 SW9       29.66R
$$

NEZ057>060-069>072-079>082-220900-
SOUTHWEST NEBRASKA

CITY           SKY/WX    TMP DP  RH WIND       PRES   REMARKS
NORTH PLATTE   CLEAR     78  64  61 S22G31    29.64S
IMPERIAL       CLEAR     67  42  40 S10       29.67R
LEXINGTON      CLEAR     80  66  63 S23       29.70S
MCCOOK         LGT RAIN  79  66  64 S24G35    29.68R
OGALLALA       CLEAR     65  42  42 S13       29.63S
$$

NEZ005>010-023>029-035>040-094-220900-
NORTH CENTRAL NEBRASKA

CITY           SKY/WX    TMP DP  RH WIND       PRES   REMARKS
VALENTINE      CLEAR     70  49  47 S21       29.60S
AINSWORTH      CLEAR     71  61  70 S17       29.64S
BROKEN BOW     CLEAR     77  66  68 S18G26    29.68F
O`NEILL        CLEAR     79  69  71 S20G25    29.69S
ORD            CLEAR     78  66  66 S17G28    29.69R
THEDFORD       CLEAR     75  62  62 S17G24    29.65S
$$

NEZ041-046>049-061>064-073>077-083>087-220900-
SOUTH CENTRAL NEBRASKA

CITY           SKY/WX    TMP DP  RH WIND       PRES   REMARKS
GRAND ISLAND   CLEAR     78  71  79 S18G25    29.76R
AURORA         CLEAR     78  71  80 S17G24    29.77S
HASTINGS       CLEAR     80  68  66 S17G28    29.78R
HEBRON         PTCLDY    81  70  70 S15G25    29.80S
HOLDREGE       CLEAR     78  66  66 S20G25    29.74R
KEARNEY        CLEAR     79  68  69 S22G31    29.74R
YORK           PTCLDY    79  72  78 S13G24    29.79R
$$

NEZ011>018-030>034-042>045-220900-
NORTHEAST NEBRASKA

CITY           SKY/WX    TMP DP  RH WIND       PRES   REMARKS
NORFOLK        CLEAR     79  71  76 S20G29    29.74S
ALBION         PTCLDY    78  72  79 S16G22    29.74S
BLAIR          CLEAR     79  72  78 S15G21    29.82S
COLUMBUS       CLEAR     80  71  74 S17G24    29.76S
FREMONT        PTCLDY    78  70  76 SE14      29.80S
TEKAMAH        CLEAR     79  71  76 SE13      29.79S
WAYNE          PTCLDY    78  75  91 S15       29.76R
$$

NEZ050>053-065>068-078-088>093-220900-
SOUTHEAST NEBRASKA

CITY           SKY/WX    TMP DP  RH WIND       PRES   REMARKS
LINCOLN        CLEAR     80  70  71 S16G22    29.80S
OMAHA EPPLEY   PTCLDY    80  71  74 S15       29.82S
BEATRICE       CLEAR     80  70  71 S15       29.83S
FALLS CITY     CLEAR     79  71  76 S14       29.86S
NEBRASKA CITY  CLEAR     77  74  91 S12G20    29.85F
PLATTSMOUTH    CLEAR     76  73  88 SE9       29.84S
$$

NEZ044-045-051>053-067-220900-
OMAHA AREA

CITY           SKY/WX    TMP DP  RH WIND       PRES   REMARKS
OMAHA EPPLEY   PTCLDY    80  71  74 S15       29.82S
BLAIR          CLEAR     79  72  78 S15G21    29.82S
FREMONT        PTCLDY    78  70  76 SE14      29.80S
MILLARD        PTCLDY    79  73  80 SE8       29.82S
OFFUTT AFB     PTCLDY    78  71  81 SE10      29.82S
PLATTSMOUTH    CLEAR     76  73  88 SE9       29.84S
WAHOO          FAIR      78  70  77 S12       29.80S
$$




USA.gov is the U.S. government's official web portal to all federal, state and local government web resources and services.